| time (UTC) | temp F | wind direction | speed MPH | gust MPH | rain 1hr in | rain 24hr in | rain mn in | humidity % | barometer mb |
| 20260507114718 | 41 | 0 | 0.0 | 0.0 | 0.00 | 0.06 | 0.00 | 94 | 1012.8 |
| 20260507114217 | 41 | 0 | 0.0 | 0.0 | 0.00 | 0.06 | 0.00 | 95 | 1012.9 |
| 20260507113718 | 41 | 0 | 0.0 | 0.0 | 0.00 | 0.07 | 0.00 | 95 | 1012.9 |
| 20260507113004 | 41 | 0 | 0.0 | 0.0 | 0.00 | 0.07 | 0.00 | 96 | 1012.8 |
| 20260507112503 | 41 | 0 | 0.0 | 0.0 | 0.00 | 0.07 | 0.00 | 96 | 1012.7 |
| 20260507112003 | 41 | 0 | 0.0 | 0.0 | 0.00 | 0.08 | 0.00 | 96 | 1012.6 |
| 20260507111504 | 41 | 0 | 0.0 | 0.0 | 0.00 | 0.08 | 0.00 | 96 | 1012.6 |
| 20260507111003 | 41 | 0 | 0.0 | 0.0 | 0.00 | 0.08 | 0.00 | 96 | 1012.4 |
| 20260507110503 | 41 | 0 | 0.0 | 0.0 | 0.00 | 0.08 | 0.00 | 96 | 1012.3 |
| 20260507110218 | 41 | 0 | 0.0 | 0.0 | 0.00 | 0.09 | 0.00 | 96 | 1012.2 |
| 20260507105503 | 41 | 0 | 0.0 | 0.0 | 0.00 | 0.09 | 0.00 | 96 | 1012.2 |
| 20260507105003 | 40 | 0 | 0.0 | 0.0 | 0.00 | 0.09 | 0.00 | 95 | 1012.1 |
| 20260507104504 | 40 | 0 | 0.0 | 0.0 | 0.00 | 0.09 | 0.00 | 95 | 1012.1 |
| 20260507104003 | 40 | 0 | 0.0 | 0.0 | 0.00 | 0.09 | 0.00 | 96 | 1012.1 |
| 20260507103503 | 40 | 0 | 0.0 | 0.0 | 0.00 | 0.10 | 0.00 | 96 | 1012.1 |
| 20260507103218 | 40 | 0 | 0.0 | 0.0 | 0.00 | 0.10 | 0.00 | 96 | 1012.0 |
| 20260507102503 | 40 | 0 | 0.0 | 0.0 | 0.00 | 0.10 | 0.00 | 96 | 1011.9 |
| 20260507102003 | 40 | 0 | 0.0 | 0.0 | 0.00 | 0.10 | 0.00 | 95 | 1011.9 |
| 20260507101717 | 40 | 0 | 0.0 | 0.0 | 0.00 | 0.11 | 0.00 | 95 | 1011.9 |
| 20260507101003 | 40 | 0 | 0.0 | 0.0 | 0.00 | 0.11 | 0.00 | 95 | 1011.9 |
| 20260507100503 | 40 | 5 | 0.0 | 1.0 | 0.00 | 0.11 | 0.00 | 96 | 1011.9 |
| 20260507100004 | 40 | 5 | 0.0 | 1.0 | 0.00 | 0.12 | 0.00 | 96 | 1012.0 |
| 20260507095718 | 40 | 0 | 0.0 | 0.0 | 0.00 | 0.12 | 0.00 | 95 | 1012.0 |
| 20260507095003 | 39 | 5 | 0.0 | 1.0 | 0.00 | 0.13 | 0.00 | 95 | 1012.0 |
| 20260507094503 | 39 | 5 | 0.0 | 1.0 | 0.00 | 0.13 | 0.00 | 95 | 1012.1 |
| 20260507094003 | 39 | 0 | 0.0 | 0.0 | 0.00 | 0.14 | 0.00 | 95 | 1012.0 |
| 20260507093503 | 39 | 0 | 0.0 | 0.0 | 0.00 | 0.14 | 0.00 | 95 | 1012.0 |
| 20260507093003 | 39 | 0 | 0.0 | 0.0 | 0.00 | 0.15 | 0.00 | 95 | 1012.1 |
| 20260507092503 | 39 | 0 | 0.0 | 0.0 | 0.00 | 0.15 | 0.00 | 95 | 1011.9 |
| 20260507092003 | 39 | 5 | 0.0 | 1.0 | 0.00 | 0.16 | 0.00 | 95 | 1012.0 |
| 20260507091717 | 39 | 5 | 0.0 | 1.0 | 0.00 | 0.16 | 0.00 | 95 | 1011.7 |
| 20260507091003 | 39 | 0 | 0.0 | 0.0 | 0.00 | 0.17 | 0.00 | 95 | 1012.1 |
| 20260507090717 | 38 | 0 | 0.0 | 0.0 | 0.00 | 0.17 | 0.00 | 95 | 1012.1 |
| 20260507090004 | 38 | 0 | 0.0 | 0.0 | 0.00 | 0.19 | 0.00 | 95 | 1012.2 |
| 20260507085503 | 38 | 0 | 0.0 | 0.0 | 0.00 | 0.19 | 0.00 | 95 | 1012.2 |
| 20260507085003 | 38 | 0 | 0.0 | 0.0 | 0.00 | 0.19 | 0.00 | 95 | 1012.0 |
| 20260507084503 | 38 | 0 | 0.0 | 0.0 | 0.00 | 0.20 | 0.00 | 95 | 1012.0 |
| 20260507084003 | 38 | 0 | 0.0 | 0.0 | 0.00 | 0.21 | 0.00 | 94 | 1012.0 |
| 20260507083503 | 38 | 0 | 0.0 | 0.0 | 0.00 | 0.21 | 0.00 | 94 | 1012.1 |
| 20260507083003 | 38 | 0 | 0.0 | 0.0 | 0.00 | 0.22 | 0.00 | 94 | 1011.9 |
| 20260507082719 | 38 | 0 | 0.0 | 0.0 | 0.00 | 0.22 | 0.00 | 94 | 1012.0 |
| 20260507082003 | 38 | 0 | 0.0 | 0.0 | 0.00 | 0.23 | 0.00 | 94 | 1012.0 |
| 20260507081504 | 38 | 0 | 0.0 | 0.0 | 0.00 | 0.24 | 0.00 | 94 | 1012.0 |
| 20260507081003 | 38 | 0 | 0.0 | 0.0 | 0.00 | 0.24 | 0.00 | 94 | 1012.0 |
| 20260507080503 | 38 | 0 | 0.0 | 0.0 | 0.00 | 0.24 | 0.00 | 94 | 1012.1 |
| 20260507080004 | 38 | 0 | 0.0 | 0.0 | 0.00 | 0.25 | 0.00 | 94 | 1012.1 |
| 20260507075503 | 38 | 0 | 0.0 | 0.0 | 0.00 | 0.25 | 0.00 | 94 | 1012.1 |
| 20260507075004 | 38 | 0 | 0.0 | 0.0 | 0.00 | 0.25 | 0.00 | 94 | 1012.0 |
| 20260507074503 | 39 | 0 | 0.0 | 0.0 | 0.00 | 0.26 | 0.00 | 94 | 1011.8 |
| 20260507074003 | 39 | 0 | 0.0 | 0.0 | 0.00 | 0.26 | 0.00 | 94 | 1011.8 |
| 20260507073504 | 39 | 0 | 0.0 | 0.0 | 0.00 | 0.27 | 0.00 | 94 | 1011.8 |
| 20260507073004 | 39 | 0 | 0.0 | 0.0 | 0.00 | 0.27 | 0.00 | 94 | 1011.8 |
| 20260507072503 | 39 | 0 | 0.0 | 0.0 | 0.00 | 0.28 | 0.00 | 93 | 1011.7 |
| 20260507072004 | 39 | 5 | 0.0 | 1.0 | 0.00 | 0.28 | 0.00 | 93 | 1011.9 |
| 20260507071504 | 40 | 5 | 0.0 | 1.0 | 0.00 | 0.29 | 0.00 | 93 | 1012.0 |
| 20260507071003 | 40 | 5 | 0.0 | 1.0 | 0.00 | 0.29 | 0.00 | 93 | 1011.9 |
| 20260507070503 | 40 | 5 | 0.0 | 1.0 | 0.00 | 0.30 | 0.00 | 93 | 1011.8 |
| 20260507070007 | 40 | 5 | 0.0 | 1.0 | 0.00 | 0.30 | 0.00 | 93 | 1011.8 |
| 20260507065718 | 40 | 5 | 0.0 | 1.0 | 0.00 | 0.31 | 0.00 | 93 | 1012.0 |
| 20260507065003 | 40 | 0 | 0.0 | 0.0 | 0.00 | 0.32 | 0.00 | 93 | 1012.1 |
| 20260507064504 | 41 | 0 | 0.0 | 0.0 | 0.00 | 0.33 | 0.00 | 93 | 1012.2 |
| 20260507064003 | 41 | 0 | 0.0 | 0.0 | 0.00 | 0.33 | 0.00 | 93 | 1012.2 |
| 20260507063503 | 41 | 0 | 0.0 | 0.0 | 0.00 | 0.34 | 0.00 | 93 | 1012.2 |
| 20260507063004 | 41 | 0 | 0.0 | 0.0 | 0.00 | 0.34 | 0.00 | 93 | 1012.2 |
| 20260507062503 | 41 | 0 | 0.0 | 0.0 | 0.00 | 0.35 | 0.00 | 94 | 1012.2 |
| 20260507062003 | 41 | 0 | 0.0 | 0.0 | 0.00 | 0.35 | 0.00 | 94 | 1012.2 |
| 20260507061503 | 42 | 0 | 0.0 | 0.0 | 0.00 | 0.36 | 0.00 | 94 | 1012.2 |
| 20260507061004 | 42 | 0 | 0.0 | 0.0 | 0.00 | 0.36 | 0.00 | 94 | 1012.3 |
| 20260507060503 | 42 | 0 | 0.0 | 0.0 | 0.00 | 0.36 | 0.00 | 94 | 1012.3 |
| 20260507060003 | 42 | 0 | 0.0 | 0.0 | 0.00 | 0.37 | 0.00 | 94 | 1012.3 |
| 20260507055503 | 42 | 0 | 0.0 | 0.0 | 0.00 | 0.37 | 0.00 | 94 | 1012.4 |
| 20260507055003 | 42 | 0 | 0.0 | 0.0 | 0.00 | 0.37 | 0.00 | 94 | 1012.4 |
| 20260507054717 | 42 | 0 | 0.0 | 0.0 | 0.00 | 0.38 | 0.00 | 94 | 1012.5 |
| 20260507054003 | 42 | 0 | 0.0 | 0.0 | 0.00 | 0.38 | 0.00 | 94 | 1012.6 |
| 20260507053503 | 42 | 0 | 0.0 | 0.0 | 0.00 | 0.39 | 0.00 | 94 | 1012.6 |
| 20260507053004 | 42 | 0 | 0.0 | 0.0 | 0.00 | 0.40 | 0.00 | 94 | 1012.5 |
| 20260507052503 | 42 | 0 | 0.0 | 0.0 | 0.00 | 0.41 | 0.00 | 94 | 1012.6 |
| 20260507052003 | 42 | 0 | 0.0 | 0.0 | 0.00 | 0.42 | 0.00 | 94 | 1012.6 |
| 20260507051503 | 42 | 0 | 0.0 | 0.0 | 0.00 | 0.43 | 0.00 | 94 | 1012.6 |
| 20260507051003 | 42 | 0 | 0.0 | 0.0 | 0.00 | 0.44 | 0.00 | 94 | 1012.7 |
| 20260507050503 | 42 | 0 | 0.0 | 0.0 | 0.00 | 0.45 | 0.00 | 94 | 1012.7 |
| 20260507050003 | 42 | 0 | 0.0 | 0.0 | 0.00 | 0.47 | 0.00 | 94 | 1012.7 |
| 20260507045503 | 42 | 0 | 0.0 | 0.0 | 0.00 | 0.48 | 0.00 | 94 | 1012.7 |
| 20260507045003 | 42 | 0 | 0.0 | 0.0 | 0.00 | 0.49 | 0.00 | 94 | 1012.7 |
| 20260507044503 | 42 | 0 | 0.0 | 0.0 | 0.00 | 0.51 | 0.00 | 94 | 1012.9 |
| 20260507044003 | 42 | 0 | 0.0 | 0.0 | 0.00 | 0.52 | 0.00 | 94 | 1012.8 |
| 20260507043717 | 42 | 0 | 0.0 | 0.0 | 0.00 | 0.53 | 0.00 | 94 | 1012.9 |
| 20260507043003 | 42 | 0 | 0.0 | 0.0 | 0.00 | 0.54 | 0.00 | 94 | 1012.9 |
| 20260507042717 | 42 | 0 | 0.0 | 0.0 | 0.00 | 0.54 | 0.00 | 94 | 1012.9 |
| 20260507042003 | 43 | 0 | 0.0 | 0.0 | 0.00 | 0.56 | 0.00 | 94 | 1012.7 |
| 20260507041503 | 42 | 0 | 0.0 | 0.0 | 0.00 | 0.56 | 0.00 | 94 | 1012.8 |
| 20260507041003 | 43 | 0 | 0.0 | 0.0 | 0.00 | 0.57 | 0.00 | 94 | 1012.7 |
| 20260507040503 | 42 | 0 | 0.0 | 0.0 | 0.00 | 0.57 | 0.00 | 94 | 1012.8 |
| 20260507040004 | 42 | 0 | 0.0 | 0.0 | 0.00 | 0.57 | 0.00 | 94 | 1012.8 |
| 20260507035503 | 42 | 0 | 0.0 | 0.0 | 0.00 | 0.57 | 0.57 | 94 | 1012.6 |
| 20260507035003 | 42 | 0 | 0.0 | 0.0 | 0.00 | 0.57 | 0.57 | 94 | 1012.5 |
| 20260507034503 | 42 | 0 | 0.0 | 0.0 | 0.00 | 0.57 | 0.57 | 93 | 1012.6 |
| 20260507034003 | 42 | 0 | 0.0 | 0.0 | 0.00 | 0.57 | 0.57 | 94 | 1012.6 |
| 20260507033717 | 42 | 0 | 0.0 | 0.0 | 0.00 | 0.57 | 0.57 | 93 | 1012.5 |
| 20260507033003 | 42 | 0 | 0.0 | 0.0 | 0.00 | 0.58 | 0.57 | 93 | 1012.5 |
| 20260507032503 | 42 | 0 | 0.0 | 0.0 | 0.00 | 0.58 | 0.57 | 93 | 1012.5 |
| 20260507032003 | 42 | 0 | 0.0 | 0.0 | 0.00 | 0.58 | 0.57 | 93 | 1012.6 |
| 20260507031503 | 43 | 0 | 0.0 | 0.0 | 0.00 | 0.59 | 0.57 | 93 | 1012.6 |
| 20260507031003 | 43 | 0 | 0.0 | 0.0 | 0.00 | 0.60 | 0.57 | 93 | 1012.6 |
| 20260507030503 | 43 | 0 | 0.0 | 0.0 | 0.00 | 0.60 | 0.57 | 93 | 1012.7 |
| 20260507030005 | 43 | 0 | 0.0 | 0.0 | 0.00 | 0.61 | 0.57 | 93 | 1012.6 |
| 20260507025503 | 43 | 0 | 0.0 | 0.0 | 0.00 | 0.62 | 0.57 | 94 | 1012.5 |
| 20260507025003 | 43 | 0 | 0.0 | 0.0 | 0.00 | 0.62 | 0.57 | 94 | 1012.5 |
| 20260507024503 | 43 | 5 | 0.0 | 1.0 | 0.00 | 0.63 | 0.57 | 93 | 1012.6 |
| 20260507024003 | 43 | 5 | 0.0 | 1.0 | 0.00 | 0.64 | 0.57 | 93 | 1012.6 |
| 20260507023503 | 43 | 0 | 0.0 | 0.0 | 0.00 | 0.64 | 0.57 | 93 | 1012.6 |
| 20260507023003 | 43 | 0 | 0.0 | 0.0 | 0.00 | 0.65 | 0.57 | 93 | 1012.6 |
| 20260507022503 | 43 | 0 | 0.0 | 0.0 | 0.00 | 0.65 | 0.57 | 93 | 1012.7 |
| 20260507022003 | 43 | 0 | 0.0 | 0.0 | 0.00 | 0.65 | 0.57 | 93 | 1012.7 |
| 20260507021503 | 43 | 0 | 0.0 | 0.0 | 0.00 | 0.65 | 0.57 | 93 | 1012.7 |
| 20260507021003 | 43 | 0 | 0.0 | 0.0 | 0.00 | 0.66 | 0.57 | 93 | 1012.8 |
| 20260507020503 | 43 | 0 | 0.0 | 0.0 | 0.00 | 0.66 | 0.57 | 93 | 1012.9 |
| 20260507020011 | 43 | 5 | 0.0 | 1.0 | 0.00 | 0.66 | 0.57 | 93 | 1012.9 |
| 20260507015503 | 43 | 5 | 0.0 | 1.0 | 0.00 | 0.66 | 0.57 | 93 | 1012.9 |
| 20260507015003 | 43 | 5 | 0.0 | 1.0 | 0.00 | 0.66 | 0.57 | 93 | 1012.9 |
| 20260507014718 | 43 | 5 | 0.0 | 1.0 | 0.00 | 0.66 | 0.57 | 93 | 1013.0 |
| 20260507014003 | 43 | 5 | 0.0 | 1.0 | 0.00 | 0.66 | 0.57 | 93 | 1012.9 |
| 20260507013503 | 43 | 5 | 0.0 | 1.0 | 0.00 | 0.66 | 0.57 | 93 | 1012.9 |
| 20260507013003 | 43 | 0 | 0.0 | 0.0 | 0.00 | 0.66 | 0.57 | 93 | 1012.9 |
| 20260507012503 | 43 | 0 | 0.0 | 0.0 | 0.00 | 0.66 | 0.57 | 93 | 1012.6 |
| 20260507012003 | 43 | 0 | 0.0 | 0.0 | 0.00 | 0.67 | 0.57 | 93 | 1012.5 |
| 20260507011503 | 43 | 0 | 0.0 | 0.0 | 0.00 | 0.67 | 0.57 | 93 | 1012.5 |
| 20260507011003 | 43 | 0 | 0.0 | 0.0 | 0.00 | 0.67 | 0.57 | 93 | 1012.5 |
| 20260507010503 | 43 | 0 | 0.0 | 0.0 | 0.00 | 0.67 | 0.57 | 93 | 1012.4 |
| 20260507010219 | 43 | 0 | 0.0 | 0.0 | 0.00 | 0.68 | 0.57 | 93 | 1012.4 |
| 20260507005718 | 43 | 0 | 0.0 | 0.0 | 0.00 | 0.68 | 0.57 | 93 | 1012.3 |
| 20260507005003 | 43 | 0 | 0.0 | 0.0 | 0.00 | 0.69 | 0.57 | 93 | 1012.3 |
| 20260507004503 | 43 | 0 | 0.0 | 0.0 | 0.00 | 0.70 | 0.57 | 93 | 1012.2 |
| 20260507004003 | 43 | 0 | 0.0 | 0.0 | 0.00 | 0.72 | 0.57 | 93 | 1012.2 |
| 20260507003717 | 43 | 0 | 0.0 | 0.0 | 0.00 | 0.73 | 0.57 | 93 | 1012.1 |
| 20260507003003 | 43 | 0 | 0.0 | 0.0 | 0.00 | 0.74 | 0.57 | 93 | 1012.1 |
| 20260507002503 | 43 | 0 | 0.0 | 0.0 | 0.00 | 0.75 | 0.57 | 93 | 1012.0 |
| 20260507002003 | 43 | 0 | 0.0 | 0.0 | 0.00 | 0.76 | 0.57 | 93 | 1012.0 |
| 20260507001503 | 43 | 0 | 0.0 | 0.0 | 0.00 | 0.77 | 0.57 | 93 | 1012.0 |
| 20260507001003 | 43 | 0 | 0.0 | 0.0 | 0.00 | 0.78 | 0.57 | 93 | 1011.9 |
| 20260507000503 | 43 | 0 | 0.0 | 0.0 | 0.00 | 0.79 | 0.57 | 93 | 1011.9 |
| 20260507000006 | 43 | 0 | 0.0 | 0.0 | 0.00 | 0.81 | 0.57 | 93 | 1011.9 |
| 20260506235504 | 43 | 5 | 0.0 | 1.0 | 0.00 | 0.82 | 0.57 | 93 | 1011.9 |
| 20260506235003 | 43 | 5 | 0.0 | 1.0 | 0.00 | 0.83 | 0.57 | 93 | 1011.8 |
| 20260506234503 | 43 | 0 | 0.0 | 0.0 | 0.00 | 0.85 | 0.57 | 93 | 1011.9 |
| 20260506234218 | 43 | 0 | 0.0 | 0.0 | 0.00 | 0.85 | 0.57 | 93 | 1011.9 |
| 20260506233503 | 43 | 0 | 0.0 | 0.0 | 0.00 | 0.86 | 0.57 | 93 | 1011.9 |
| 20260506233003 | 43 | 0 | 0.0 | 0.0 | 0.00 | 0.87 | 0.57 | 93 | 1011.9 |
| 20260506232503 | 43 | 0 | 0.0 | 0.0 | 0.00 | 0.87 | 0.57 | 93 | 1011.9 |
| 20260506232218 | 43 | 0 | 0.0 | 0.0 | 0.00 | 0.88 | 0.57 | 93 | 1011.9 |
| 20260506231503 | 43 | 0 | 0.0 | 0.0 | 0.00 | 0.89 | 0.57 | 93 | 1011.6 |
| 20260506231005 | 43 | 355 | 0.0 | 2.0 | 0.00 | 0.90 | 0.57 | 93 | 1011.6 |
| 20260506230503 | 43 | 13 | 1.0 | 2.0 | 0.00 | 0.91 | 0.57 | 93 | 1011.6 |
| 20260506230004 | 43 | 4 | 1.0 | 2.0 | 0.00 | 0.91 | 0.57 | 93 | 1011.4 |
| 20260506225503 | 43 | 333 | 0.0 | 2.0 | 0.00 | 0.92 | 0.57 | 93 | 1011.4 |
| 20260506225003 | 43 | 333 | 1.0 | 2.0 | 0.00 | 0.93 | 0.57 | 93 | 1011.2 |
| 20260506224503 | 43 | 334 | 1.0 | 3.0 | 0.00 | 0.94 | 0.57 | 93 | 1011.1 |
| 20260506224003 | 43 | 330 | 1.0 | 3.0 | 0.00 | 0.95 | 0.57 | 93 | 1011.0 |
| 20260506223503 | 43 | 323 | 1.0 | 3.0 | 0.00 | 0.96 | 0.57 | 93 | 1011.1 |
| 20260506223003 | 43 | 316 | 1.0 | 2.0 | 0.00 | 0.96 | 0.57 | 93 | 1011.0 |
| 20260506222503 | 43 | 348 | 1.0 | 2.0 | 0.00 | 0.97 | 0.57 | 93 | 1011.0 |
| 20260506222003 | 43 | 344 | 1.0 | 3.0 | 0.00 | 0.98 | 0.57 | 93 | 1010.9 |
| 20260506221504 | 43 | 326 | 1.0 | 3.0 | 0.00 | 0.99 | 0.57 | 93 | 1010.8 |
| 20260506221003 | 43 | 331 | 1.0 | 3.0 | 0.00 | 1.00 | 0.57 | 93 | 1010.7 |
| 20260506220503 | 43 | 336 | 1.0 | 3.0 | 0.00 | 1.01 | 0.57 | 92 | 1010.5 |
| 20260506220003 | 44 | 332 | 2.0 | 4.0 | 0.00 | 1.02 | 0.57 | 92 | 1010.6 |
| 20260506215503 | 44 | 326 | 2.0 | 4.0 | 0.00 | 1.03 | 0.57 | 91 | 1010.6 |
| 20260506215003 | 44 | 332 | 2.0 | 4.0 | 0.00 | 1.04 | 0.57 | 91 | 1010.6 |
| 20260506214503 | 45 | 329 | 2.0 | 4.0 | 0.00 | 1.06 | 0.57 | 91 | 1010.4 |
| 20260506214003 | 45 | 303 | 2.0 | 3.0 | 0.00 | 1.07 | 0.57 | 91 | 1010.4 |
| 20260506213503 | 46 | 280 | 1.0 | 3.0 | 0.00 | 1.09 | 0.57 | 91 | 1010.3 |
| 20260506213003 | 47 | 279 | 1.0 | 3.0 | 0.00 | 1.10 | 0.57 | 91 | 1010.1 |
| 20260506212503 | 47 | 280 | 1.0 | 4.0 | 0.00 | 1.11 | 0.57 | 91 | 1010.0 |
| 20260506212217 | 47 | 279 | 1.0 | 4.0 | 0.00 | 1.12 | 0.57 | 91 | 1009.8 |
| 20260506211503 | 48 | 293 | 1.0 | 4.0 | 0.00 | 1.16 | 0.57 | 90 | 1009.4 |
| 20260506211003 | 48 | 313 | 2.0 | 4.0 | 0.00 | 1.18 | 0.57 | 89 | 1009.5 |
| 20260506210503 | 49 | 306 | 2.0 | 4.0 | 0.00 | 1.19 | 0.57 | 89 | 1009.4 |
| 20260506210005 | 49 | 272 | 2.0 | 4.0 | 0.00 | 1.19 | 0.57 | 88 | 1009.3 |
| 20260506205503 | 49 | 250 | 2.0 | 4.0 | 0.00 | 1.20 | 0.57 | 87 | 1009.2 |
| 20260506205217 | 49 | 227 | 2.0 | 7.0 | 0.00 | 1.20 | 0.57 | 86 | 1009.1 |
| 20260506204503 | 49 | 210 | 1.0 | 7.0 | 0.00 | 1.20 | 0.57 | 89 | 1009.0 |
| 20260506204003 | 49 | 235 | 0.0 | 2.0 | 0.00 | 1.20 | 0.57 | 89 | 1009.0 |
| 20260506203503 | 50 | 235 | 0.0 | 1.0 | 0.00 | 1.20 | 0.57 | 89 | 1009.0 |
| 20260506203217 | 50 | 235 | 0.0 | 1.0 | 0.00 | 1.20 | 0.57 | 89 | 1009.1 |
| 20260506202718 | 50 | 235 | 0.0 | 1.0 | 0.00 | 1.20 | 0.57 | 89 | 1009.1 |
| 20260506202003 | 50 | 235 | 0.0 | 1.0 | 0.00 | 1.20 | 0.57 | 90 | 1009.1 |
| 20260506201718 | 50 | 235 | 0.0 | 1.0 | 0.00 | 1.20 | 0.57 | 90 | 1009.1 |
| 20260506201217 | 50 | 235 | 0.0 | 1.0 | 0.00 | 1.20 | 0.57 | 89 | 1009.2 |
| 20260506200503 | 50 | 235 | 0.0 | 1.0 | 0.00 | 1.20 | 0.57 | 89 | 1009.1 |
| 20260506200003 | 50 | 235 | 0.0 | 1.0 | 0.00 | 1.20 | 0.57 | 88 | 1009.1 |
| 20260506195503 | 50 | 235 | 0.0 | 1.0 | 0.00 | 1.20 | 0.57 | 87 | 1009.1 |
| 20260506195003 | 50 | 0 | 0.0 | 0.0 | 0.00 | 1.20 | 0.57 | 87 | 1009.1 |
| 20260506194503 | 50 | 235 | 0.0 | 2.0 | 0.00 | 1.20 | 0.57 | 87 | 1009.1 |
| 20260506194217 | 50 | 235 | 0.0 | 2.0 | 0.00 | 1.20 | 0.57 | 88 | 1009.2 |
| 20260506193503 | 50 | 235 | 0.0 | 1.0 | 0.00 | 1.20 | 0.57 | 88 | 1009.2 |
| 20260506193217 | 50 | 235 | 0.0 | 1.0 | 0.00 | 1.20 | 0.57 | 88 | 1009.2 |
| 20260506192504 | 50 | 235 | 0.0 | 1.0 | 0.00 | 1.20 | 0.57 | 88 | 1009.1 |
| 20260506192003 | 50 | 238 | 0.0 | 2.0 | 0.00 | 1.20 | 0.57 | 88 | 1009.2 |
| 20260506191503 | 50 | 243 | 0.0 | 2.0 | 0.00 | 1.20 | 0.57 | 87 | 1009.1 |
| 20260506191003 | 50 | 22 | 0.0 | 1.0 | 0.00 | 1.20 | 0.57 | 88 | 1009.2 |
| 20260506190503 | 50 | 29 | 0.0 | 2.0 | 0.00 | 1.20 | 0.57 | 87 | 1009.1 |
| 20260506190218 | 50 | 30 | 0.0 | 2.0 | 0.00 | 1.20 | 0.57 | 87 | 1009.1 |
| 20260506185503 | 50 | 30 | 1.0 | 3.0 | 0.00 | 1.20 | 0.57 | 88 | 1009.1 |
| 20260506185219 | 50 | 32 | 1.0 | 3.0 | 0.00 | 1.20 | 0.57 | 87 | 1009.1 |
| 20260506184503 | 50 | 42 | 1.0 | 4.0 | 0.00 | 1.20 | 0.57 | 90 | 1009.0 |
| 20260506184003 | 49 | 56 | 1.0 | 4.0 | 0.00 | 1.20 | 0.57 | 89 | 1009.0 |
| 20260506183503 | 49 | 72 | 1.0 | 3.0 | 0.00 | 1.20 | 0.57 | 90 | 1009.1 |
| 20260506183004 | 49 | 82 | 0.0 | 2.0 | 0.00 | 1.20 | 0.57 | 91 | 1009.1 |
| 20260506182503 | 48 | 82 | 0.0 | 3.0 | 0.00 | 1.20 | 0.57 | 90 | 1009.3 |
| 20260506182003 | 48 | 82 | 0.0 | 3.0 | 0.00 | 1.20 | 0.57 | 89 | 1009.4 |
| 20260506181503 | 48 | 82 | 0.0 | 1.0 | 0.00 | 1.20 | 0.57 | 90 | 1009.4 |
| 20260506181003 | 48 | 82 | 0.0 | 1.0 | 0.00 | 1.20 | 0.57 | 90 | 1009.4 |
| 20260506180503 | 48 | 82 | 0.0 | 1.0 | 0.00 | 1.20 | 0.57 | 90 | 1009.4 |
| 20260506180004 | 48 | 82 | 0.0 | 1.0 | 0.00 | 1.20 | 0.57 | 89 | 1009.4 |
| 20260506175503 | 48 | 82 | 0.0 | 1.0 | 0.00 | 1.20 | 0.57 | 89 | 1009.3 |
| 20260506175218 | 48 | 82 | 0.0 | 1.0 | 0.00 | 1.20 | 0.57 | 89 | 1009.2 |
| 20260506174503 | 48 | 82 | 0.0 | 1.0 | 0.00 | 1.20 | 0.57 | 90 | 1009.3 |
| 20260506174003 | 48 | 82 | 0.0 | 1.0 | 0.00 | 1.20 | 0.57 | 90 | 1009.3 |
| 20260506173503 | 48 | 82 | 0.0 | 1.0 | 0.00 | 1.20 | 0.57 | 90 | 1009.4 |
| 20260506173004 | 48 | 82 | 0.0 | 1.0 | 0.00 | 1.20 | 0.57 | 90 | 1009.4 |
| 20260506172503 | 47 | 82 | 0.0 | 1.0 | 0.00 | 1.20 | 0.57 | 91 | 1009.4 |
| 20260506172003 | 47 | 82 | 0.0 | 1.0 | 0.00 | 1.20 | 0.57 | 91 | 1009.4 |
| 20260506171503 | 47 | 82 | 0.0 | 1.0 | 0.00 | 1.20 | 0.57 | 91 | 1009.4 |
| 20260506171003 | 47 | 82 | 0.0 | 1.0 | 0.00 | 1.20 | 0.57 | 91 | 1009.3 |
| 20260506170503 | 47 | 0 | 0.0 | 0.0 | 0.00 | 1.20 | 0.57 | 92 | 1009.5 |
| 20260506170218 | 47 | 82 | 0.0 | 1.0 | 0.00 | 1.20 | 0.57 | 92 | 1009.4 |
| 20260506165503 | 47 | 82 | 0.0 | 2.0 | 0.00 | 1.20 | 0.57 | 92 | 1009.3 |
| 20260506165003 | 47 | 82 | 0.0 | 2.0 | 0.00 | 1.20 | 0.57 | 91 | 1009.3 |
| 20260506164503 | 47 | 82 | 0.0 | 1.0 | 0.00 | 1.20 | 0.57 | 91 | 1009.1 |
| 20260506164003 | 47 | 82 | 0.0 | 1.0 | 0.00 | 1.20 | 0.57 | 91 | 1009.2 |
| 20260506163503 | 47 | 82 | 0.0 | 1.0 | 0.00 | 1.20 | 0.57 | 92 | 1009.0 |
| 20260506163003 | 47 | 82 | 0.0 | 1.0 | 0.00 | 1.20 | 0.57 | 92 | 1009.0 |
| 20260506162503 | 47 | 82 | 0.0 | 1.0 | 0.00 | 1.20 | 0.57 | 92 | 1009.1 |
| 20260506162003 | 47 | 82 | 0.0 | 1.0 | 0.00 | 1.20 | 0.57 | 93 | 1009.2 |
| 20260506161719 | 47 | 82 | 0.0 | 1.0 | 0.00 | 1.20 | 0.57 | 92 | 1009.2 |
| 20260506161003 | 47 | 82 | 0.0 | 1.0 | 0.00 | 1.20 | 0.57 | 93 | 1009.1 |
| 20260506160503 | 47 | 82 | 0.0 | 1.0 | 0.00 | 1.20 | 0.57 | 93 | 1009.1 |
| 20260506160003 | 47 | 82 | 0.0 | 1.0 | 0.01 | 1.20 | 0.57 | 93 | 1009.1 |
| 20260506155503 | 47 | 82 | 0.0 | 1.0 | 0.01 | 1.20 | 0.57 | 93 | 1009.0 |
| 20260506155003 | 47 | 82 | 0.0 | 1.0 | 0.01 | 1.20 | 0.57 | 93 | 1009.0 |
| 20260506154503 | 47 | 82 | 0.0 | 1.0 | 0.01 | 1.20 | 0.57 | 93 | 1009.1 |
| 20260506154003 | 47 | 82 | 0.0 | 1.0 | 0.01 | 1.20 | 0.57 | 93 | 1009.1 |
| 20260506153718 | 47 | 82 | 0.0 | 1.0 | 0.01 | 1.20 | 0.57 | 93 | 1009.0 |
| 20260506153003 | 47 | 82 | 0.0 | 2.0 | 0.01 | 1.20 | 0.57 | 93 | 1009.1 |
| 20260506152503 | 47 | 82 | 0.0 | 2.0 | 0.01 | 1.20 | 0.57 | 94 | 1008.8 |
| 20260506152003 | 47 | 82 | 0.0 | 2.0 | 0.01 | 1.20 | 0.57 | 94 | 1008.8 |
| 20260506151503 | 47 | 82 | 0.0 | 2.0 | 0.02 | 1.20 | 0.57 | 95 | 1008.8 |
| 20260506151003 | 47 | 82 | 0.0 | 2.0 | 0.02 | 1.20 | 0.57 | 95 | 1008.8 |
| 20260506150504 | 47 | 68 | 0.0 | 2.0 | 0.02 | 1.20 | 0.57 | 95 | 1009.0 |
| 20260506150004 | 47 | 59 | 0.0 | 2.0 | 0.01 | 1.19 | 0.56 | 95 | 1008.9 |
| 20260506145503 | 46 | 31 | 0.0 | 1.0 | 0.01 | 1.19 | 0.56 | 95 | 1008.8 |
| 20260506145003 | 46 | 31 | 0.0 | 3.0 | 0.01 | 1.19 | 0.56 | 95 | 1008.6 |
| 20260506144503 | 46 | 32 | 1.0 | 3.0 | 0.01 | 1.19 | 0.56 | 94 | 1008.7 |
| 20260506144003 | 46 | 32 | 0.0 | 2.0 | 0.01 | 1.19 | 0.56 | 95 | 1008.6 |
| 20260506143503 | 46 | 32 | 0.0 | 2.0 | 0.01 | 1.19 | 0.56 | 94 | 1008.6 |
| 20260506143003 | 46 | 32 | 0.0 | 2.0 | 0.02 | 1.19 | 0.56 | 95 | 1008.7 |
| 20260506142503 | 46 | 32 | 0.0 | 1.0 | 0.02 | 1.19 | 0.56 | 95 | 1008.8 |
| 20260506142003 | 46 | 35 | 1.0 | 2.0 | 0.02 | 1.19 | 0.56 | 95 | 1008.8 |
| 20260506141503 | 46 | 37 | 0.0 | 2.0 | 0.01 | 1.18 | 0.55 | 95 | 1008.6 |
| 20260506141217 | 46 | 44 | 0.0 | 2.0 | 0.01 | 1.18 | 0.55 | 95 | 1008.6 |
| 20260506140503 | 46 | 51 | 0.0 | 1.0 | 0.01 | 1.18 | 0.55 | 95 | 1008.6 |
| 20260506140003 | 45 | 51 | 0.0 | 1.0 | 0.01 | 1.18 | 0.55 | 95 | 1008.5 |
| 20260506135503 | 45 | 51 | 0.0 | 2.0 | 0.01 | 1.18 | 0.55 | 95 | 1008.4 |
| 20260506135003 | 45 | 51 | 0.0 | 2.0 | 0.01 | 1.18 | 0.55 | 95 | 1008.5 |
| 20260506134503 | 45 | 51 | 0.0 | 2.0 | 0.02 | 1.18 | 0.55 | 95 | 1008.4 |
| 20260506134218 | 45 | 51 | 0.0 | 1.0 | 0.02 | 1.18 | 0.55 | 95 | 1008.5 |
| 20260506133717 | 45 | 51 | 0.0 | 1.0 | 0.02 | 1.18 | 0.55 | 95 | 1008.3 |
| 20260506133003 | 45 | 0 | 0.0 | 0.0 | 0.02 | 1.17 | 0.54 | 95 | 1008.3 |
| 20260506132503 | 45 | 51 | 0.0 | 1.0 | 0.02 | 1.17 | 0.54 | 95 | 1008.2 |
| 20260506132003 | 45 | 51 | 0.0 | 1.0 | 0.02 | 1.17 | 0.54 | 95 | 1008.2 |
| 20260506131503 | 45 | 51 | 0.0 | 1.0 | 0.02 | 1.17 | 0.54 | 95 | 1008.1 |
| 20260506131003 | 45 | 51 | 0.0 | 1.0 | 0.02 | 1.17 | 0.54 | 95 | 1008.1 |
| 20260506130503 | 45 | 53 | 0.0 | 1.0 | 0.03 | 1.17 | 0.54 | 95 | 1008.1 |
| 20260506130004 | 44 | 62 | 0.0 | 1.0 | 0.03 | 1.17 | 0.54 | 95 | 1008.0 |
| 20260506125503 | 44 | 74 | 0.0 | 2.0 | 0.03 | 1.17 | 0.54 | 95 | 1008.1 |
| 20260506125006 | 44 | 82 | 0.0 | 2.0 | 0.03 | 1.17 | 0.54 | 95 | 1008.0 |
| 20260506124503 | 44 | 109 | 0.0 | 2.0 | 0.02 | 1.16 | 0.53 | 95 | 1007.9 |
| 20260506124005 | 44 | 109 | 0.0 | 2.0 | 0.02 | 1.16 | 0.53 | 95 | 1008.0 |
| 20260506123503 | 44 | 98 | 0.0 | 2.0 | 0.03 | 1.16 | 0.53 | 95 | 1007.9 |
| 20260506123218 | 44 | 74 | 1.0 | 2.0 | 0.02 | 1.15 | 0.52 | 95 | 1007.9 |
| 20260506122503 | 44 | 25 | 1.0 | 2.0 | 0.02 | 1.15 | 0.52 | 95 | 1007.8 |
| 20260506122003 | 44 | 25 | 0.0 | 2.0 | 0.03 | 1.15 | 0.52 | 95 | 1007.8 |
| 20260506121503 | 44 | 25 | 0.0 | 1.0 | 0.03 | 1.15 | 0.52 | 95 | 1007.8 |
| 20260506121003 | 44 | 25 | 0.0 | 1.0 | 0.03 | 1.15 | 0.52 | 95 | 1007.8 |
| 20260506120503 | 44 | 28 | 0.0 | 1.0 | 0.02 | 1.14 | 0.51 | 95 | 1007.7 |
| 20260506120003 | 44 | 30 | 1.0 | 2.0 | 0.03 | 1.14 | 0.51 | 95 | 1007.6 |
| 20260506115503 | 44 | 39 | 1.0 | 2.0 | 0.03 | 1.14 | 0.51 | 95 | 1007.6 |